Regional Weather Roundup
Issued by NWS

Home | Current Version | Previous Version | Graphics & Text | Print | Product List | Glossary On
Versions: 1 2 3 4 5 6 7 8 9 10 11 12 13 14 15 16 17 18 19 20 21 22 23 24 25 26 27 28 29 30 31 32 33 34 35 36 37 38 39 40 41 42 43 44 45 46 47 48 49 50
000
ASUS45 KABQ 281001
RWRNM
NEW MEXICO REGIONAL WEATHER ROUNDUP
NATIONAL WEATHER SERVICE ALBUQUERQUE NM
400 AM MDT SAT MAY 28 2016

NOTE: "FAIR" MEANS FEW OR NO CLOUDS BELOW 12,000 FEET AGL WITH NO
       SIGNIFICANT WEATHER OR OBSTRUCTIONS TO VISION.

      THIS PRODUCT IS RELEASED AS TWO VERSIONS.  ONE VERSION NEAR
      THE TOP OF THE HOUR CONTAINING PRELIMINARY DATA FROM ALBUQUERQUE
      AND OTHER STATIONS.  A FINAL VERSION WITH ADDITIONAL DATA IS
      ISSUED ABOUT 10 MINUTES AFTER THE HOUR.

NMZ501-503-504-510>518-281100-
NORTHWEST PLATEAU/NORTHCENTRAL MOUNTAINS

CITY           SKY/WX    TMP DP  RH WIND       PRES   REMARKS
FARMINGTON     FAIR      43  30  60 NE7       30.03R
SANTA FE       FAIR      44  31  60 N12       30.06R
TAOS           FAIR      32  23  69 N5        30.12R WCI  27

$$
NMZ402-403-502-505>509-281100-
WESTCENTRAL MOUNTAINS/SOUTHWEST MOUNTAINS

CITY           SKY/WX    TMP DP  RH WIND       PRES   REMARKS
GALLUP         FAIR      36  23  59 NE7       30.08R WCI  30
GRANTS         FAIR      37  21  51 N3        30.10S
SILVER CITY      N/A     52  19  28 NW10      30.04S

$$
NMZ407-409-411-412-281100-
SOUTHERN DESERTS

CITY           SKY/WX    TMP DP  RH WIND       PRES   REMARKS
LORDSBURG      FAIR      48  16  27 E6        29.97S
DEMING         FAIR      50  19  29 SW8       29.97R
HOLLOMAN AFB   FAIR      59  20  21 SE5       29.93S
ALAMOGORDO     FAIR      55  19  24 SE3       29.94S
T OR C         FAIR      62  24  23 NW9       29.97S

$$
NMZ519>523-281100-
CENTRAL VALLEYS/CENTRAL HIGHLANDS

CITY           SKY/WX    TMP DP  RH WIND       PRES   REMARKS
ALBUQUERQUE    FAIR      56  31  38 N5        30.02R
DOUBLE EAGLE   FAIR      45  29  53 NW6       30.06R
CLINES CORNERS FAIR      42  27  55 SW9       30.08R
BELEN          FAIR      47  22  36 CALM      30.02R
SOCORRO        NOT AVBL

$$
NMZ524>526-539-540-281100-
SOUTHCENTRAL MOUNTAINS

CITY           SKY/WX    TMP DP  RH WIND       PRES   REMARKS
RUIDOSO        NOT AVBL

$$
NMZ527>531-281100-
NORTHEAST HIGHLANDS/NORTHEAST PLAINS

CITY           SKY/WX    TMP DP  RH WIND       PRES   REMARKS
LAS VEGAS      FAIR      41  31  67 NW5       30.08R
RATON          FAIR      36  33  89 N3        30.03R
CLAYTON        FAIR      44  37  76 NW3       29.97R

$$
NMZ532>537-281100-
EASTCENTRAL PLAINS

CITY           SKY/WX    TMP DP  RH WIND       PRES   REMARKS
TUCUMCARI      FAIR      47  40  76 S3        29.97R
CANNON AFB     FAIR      49  41  73 NE9       29.97R
CLOVIS AIRPORT FAIR      48  39  71 N9        29.98R

$$
NMZ028-029-538-281100-
SOUTHEAST PLAINS

CITY           SKY/WX    TMP DP  RH WIND       PRES   REMARKS
ROSWELL        FAIR      60  34  37 N10       29.94R
ARTESIA        FAIR      59  27  29 NW13      29.92R
CARLSBAD       FAIR      57  21  24 NE7       29.90R
HOBBS          FAIR      57  25  28 N8        29.93R


$$




USA.gov is the U.S. government's official web portal to all federal, state and local government web resources and services.